International Skating Union - Official Site

Essent ISU World Cup Inzell
March 7-9, 2014

Draw | Lap Times | Index | World Cup

Referee: Erik  ØSMUNDSET  (NOR)
Starter: Roland  STEENBECK  (GER)
StartTime: EndTime: Air Temp: Ice Temp: Humidity:
15:45 16:45 11.3℃ -7℃ 35%
Result 5000m Men Division A
Rankings as of Mar 7 2014 4:54PM
Rank: No.: Name: Nation: Time: Behind: Points:
1 142 Jorrit  Bergsma NED NED 6:14.08200m - 19.09 - (19.0)
600m - 48.48 - (29.3)
1000m - 1:18.01 - (29.5)
1400m - 1:47.60 - (29.5)
1800m - 2:17.19 - (29.5)
2200m - 2:46.82 - (29.6)
2600m - 3:16.34 - (29.5)
3000m - 3:45.91 - (29.5)
3400m - 4:15.34 - (29.4)
3800m - 4:44.79 - (29.4)
4200m - 5:14.39 - (29.6)
4600m - 5:44.13 - (29.7)
5000m - 6:14.08 - (29.9)
100
2 165 Sverre  Lunde Pedersen NOR NOR 6:19.48200m - 18.78 - (18.7)
600m - 48.18 - (29.4)
1000m - 1:17.91 - (29.7)
1400m - 1:47.81 - (29.9)
1800m - 2:18.03 - (30.2)
2200m - 2:47.92 - (29.8)
2600m - 3:18.02 - (30.1)
3000m - 3:48.05 - (30.0)
3400m - 4:18.16 - (30.1)
3800m - 4:48.35 - (30.1)
4200m - 5:18.46 - (30.1)
4600m - 5:48.65 - (30.1)
5000m - 6:19.48 - (30.8)
5.40 80
3 116 Patrick  Beckert GER GER 6:22.71200m - 18.91 - (18.9)
600m - 48.01 - (29.1)
1000m - 1:18.08 - (30.0)
1400m - 1:48.27 - (30.1)
1800m - 2:18.09 - (29.8)
2200m - 2:48.23 - (30.1)
2600m - 3:18.52 - (30.2)
3000m - 3:49.11 - (30.5)
3400m - 4:20.25 - (31.1)
3800m - 4:51.25 - (31.0)
4200m - 5:22.07 - (30.8)
4600m - 5:52.74 - (30.6)
5000m - 6:22.71 - (29.9)
8.63 70
4 145 Douwe  de Vries NED NED 6:22.88200m - 19.12 - (19.1)
600m - 49.33 - (30.2)
1000m - 1:19.30 - (29.9)
1400m - 1:49.46 - (30.1)
1800m - 2:19.57 - (30.1)
2200m - 2:49.42 - (29.8)
2600m - 3:19.31 - (29.8)
3000m - 3:49.40 - (30.0)
3400m - 4:19.70 - (30.3)
3800m - 4:50.36 - (30.6)
4200m - 5:21.16 - (30.8)
4600m - 5:51.93 - (30.7)
5000m - 6:22.88 - (30.9)
8.80 60
5 184 Denis  Yuskov RUS RUS 6:23.69200m - 19.09 - (19.0)
600m - 49.62 - (30.5)
1000m - 1:19.72 - (30.1)
1400m - 1:49.86 - (30.1)
1800m - 2:19.93 - (30.0)
2200m - 2:49.58 - (29.6)
2600m - 3:19.14 - (29.5)
3000m - 3:49.01 - (29.8)
3400m - 4:19.03 - (30.0)
3800m - 4:49.21 - (30.1)
4200m - 5:20.36 - (31.1)
4600m - 5:52.00 - (31.6)
5000m - 6:23.69 - (31.6)
9.61 50
6 143 Bob  de Jong NED NED 6:23.84200m - 19.51 - (19.5)
600m - 49.24 - (29.7)
1000m - 1:19.18 - (29.9)
1400m - 1:49.29 - (30.1)
1800m - 2:19.32 - (30.0)
2200m - 2:49.13 - (29.8)
2600m - 3:19.05 - (29.9)
3000m - 3:49.12 - (30.0)
3400m - 4:19.27 - (30.1)
3800m - 4:49.77 - (30.5)
4200m - 5:21.29 - (31.5)
4600m - 5:52.50 - (31.2)
5000m - 6:23.84 - (31.3)
9.76 45
7 179 Aleksandr  Rumyantsev RUS RUS 6:24.68200m - 18.98 - (18.9)
600m - 48.74 - (29.7)
1000m - 1:18.97 - (30.2)
1400m - 1:49.16 - (30.1)
1800m - 2:19.36 - (30.2)
2200m - 2:49.87 - (30.5)
2600m - 3:20.22 - (30.3)
3000m - 3:50.72 - (30.5)
3400m - 4:21.16 - (30.4)
3800m - 4:51.77 - (30.6)
4200m - 5:22.36 - (30.5)
4600m - 5:53.38 - (31.0)
5000m - 6:24.68 - (31.3)
10.60 40
8 148 Rob  Hadders NED NED 6:28.14 (1) 200m - 19.64 - (19.6)
600m - 49.77 - (30.1)
1000m - 1:18.89 - (29.1)
1400m - 1:48.23 - (29.3)
1800m - 2:17.93 - (29.7)
2200m - 2:48.10 - (30.1)
2600m - 3:18.55 - (30.4)
3000m - 3:49.16 - (30.6)
3400m - 4:20.29 - (31.1)
3800m - 4:52.03 - (31.7)
4200m - 5:23.99 - (31.9)
4600m - 5:55.87 - (31.8)
5000m - 6:28.14 - (32.2)
14.06 35
8 180 Yevgeny  Seryaev RUS RUS 6:28.14 (1) 200m - 19.58 - (19.5)
600m - 50.02 - (30.4)
1000m - 1:20.16 - (30.1)
1400m - 1:50.58 - (30.4)
1800m - 2:21.12 - (30.5)
2200m - 2:51.67 - (30.5)
2600m - 3:22.31 - (30.6)
3000m - 3:53.05 - (30.7)
3400m - 4:23.91 - (30.8)
3800m - 4:54.95 - (31.0)
4200m - 5:25.97 - (31.0)
4600m - 5:57.01 - (31.0)
5000m - 6:28.14 - (31.1)
14.06 35
10 161 Håvard  Bøkko NOR NOR 6:29.38200m - 19.06 - (19.0)
600m - 49.30 - (30.2)
1000m - 1:20.02 - (30.7)
1400m - 1:50.31 - (30.2)
1800m - 2:20.93 - (30.6)
2200m - 2:51.46 - (30.5)
2600m - 3:22.19 - (30.7)
3000m - 3:53.25 - (31.0)
3400m - 4:24.27 - (31.0)
3800m - 4:55.35 - (31.0)
4200m - 5:26.44 - (31.0)
4600m - 5:57.74 - (31.3)
5000m - 6:29.38 - (31.6)
15.30 25
11 138 Dmitry  Babenko KAZ KAZ 6:29.57200m - 19.32 - (19.3)
600m - 49.71 - (30.3)
1000m - 1:20.57 - (30.8)
1400m - 1:50.99 - (30.4)
1800m - 2:21.51 - (30.5)
2200m - 2:52.16 - (30.6)
2600m - 3:22.94 - (30.7)
3000m - 3:53.72 - (30.7)
3400m - 4:24.53 - (30.8)
3800m - 4:55.57 - (31.0)
4200m - 5:26.93 - (31.3)
4600m - 5:58.30 - (31.3)
5000m - 6:29.57 - (31.2)
15.49 21
12 193 Patrick  Meek USA USA 6:32.08200m - 19.48 - (19.4)
600m - 49.21 - (29.7)
1000m - 1:19.15 - (29.9)
1400m - 1:48.93 - (29.7)
1800m - 2:19.32 - (30.3)
2200m - 2:49.58 - (30.2)
2600m - 3:20.23 - (30.6)
3000m - 3:51.16 - (30.9)
3400m - 4:22.38 - (31.2)
3800m - 4:54.17 - (31.7)
4200m - 5:26.31 - (32.1)
4600m - 5:58.89 - (32.5)
5000m - 6:32.08 - (33.1)
18.00 18
13 181 Danil  Sinitsyn RUS RUS 6:32.59200m - 19.87 - (19.8)
600m - 49.98 - (30.1)
1000m - 1:20.31 - (30.3)
1400m - 1:50.76 - (30.4)
1800m - 2:21.08 - (30.3)
2200m - 2:51.62 - (30.5)
2600m - 3:21.75 - (30.1)
3000m - 3:52.64 - (30.8)
3400m - 4:23.77 - (31.1)
3800m - 4:55.33 - (31.5)
4200m - 5:27.21 - (31.8)
4600m - 5:59.78 - (32.5)
5000m - 6:32.59 - (32.8)
18.51 16
14 119 Moritz  Geisreiter GER GER 6:34.70200m - 19.22 - (19.2)
600m - 48.72 - (29.5)
1000m - 1:19.30 - (30.5)
1400m - 1:49.67 - (30.3)
1800m - 2:20.30 - (30.6)
2200m - 2:50.73 - (30.4)
2600m - 3:21.51 - (30.7)
3000m - 3:52.85 - (31.3)
3400m - 4:24.97 - (32.1)
3800m - 4:56.81 - (31.8)
4200m - 5:29.03 - (32.2)
4600m - 6:01.76 - (32.7)
5000m - 6:34.70 - (32.9)
20.62 14
15 115 Alexej  Baumgärtner GER GER 6:36.17200m - 19.23 - (19.2)
600m - 48.73 - (29.5)
1000m - 1:19.12 - (30.3)
1400m - 1:49.18 - (30.0)
1800m - 2:19.52 - (30.3)
2200m - 2:49.91 - (30.3)
2600m - 3:20.83 - (30.9)
3000m - 3:52.02 - (31.1)
3400m - 4:23.82 - (31.8)
3800m - 4:56.19 - (32.3)
4200m - 5:29.29 - (33.1)
4600m - 6:02.62 - (33.3)
5000m - 6:36.17 - (33.5)
22.09 12
16 171 Jan  Szymanski POL POL 6:36.81200m - 18.86 - (18.8)
600m - 48.86 - (30.0)
1000m - 1:19.40 - (30.5)
1400m - 1:49.86 - (30.4)
1800m - 2:20.36 - (30.5)
2200m - 2:50.89 - (30.5)
2600m - 3:21.71 - (30.8)
3000m - 3:52.33 - (30.6)
3400m - 4:23.47 - (31.1)
3800m - 4:54.86 - (31.3)
4200m - 5:28.28 - (33.4)
4600m - 6:02.82 - (34.5)
5000m - 6:36.81 - (33.9)
22.73 10